Regional Weather Roundup
Issued by NWS Nashville, TN

Home | Current Version | Previous Version | Text Only | Print | Product List | Glossary On
Versions: 1 2 3 4 5 6 7 8 9 10 11 12 13 14 15 16 17 18 19 20 21 22 23 24 25 26 27 28 29 30 31 32 33 34 35 36 37 38 39 40 41 42 43 44 45 46 47 48 49 50
000
ASUS44 KOHX 271215
RWROHX
MIDDLE TENNESSEE HOURLY WEATHER ROUNDUP
NATIONAL WEATHER SERVICE NASHVILLE TN
700 AM CDT WED AUG 27 2014

NOTE: "FAIR" INDICATES FEW OR NO CLOUDS BELOW 12,000 FEET WITH
NO SIGNIFICANT WEATHER AND/OR OBSTRUCTIONS TO VISIBILITY.

* THESE REPORTS ARE NOT UNDER NWS QUALITY CONTROL AND MAY NOT
  REPORT WEATHER SUCH AS PRECIPITATION AND FOG.


TNZ005>011-023>034-057-059-062>066-078-080-271300
...NORTHERN MIDDLE TENNESSEE...

CITY           SKY/WX    TMP DP  RH WIND       PRES   REMARKS
CLARKSVILLE    PTCLDY    71  70  96 CALM      30.09S FOG
CROSSVILLE     HAZE      68  61  78 CALM      30.17R VSB 1/2
GALLATIN       CLOUDY    69  68  97 CALM      30.11R VSB 1/2
DICKSON        CLEAR     70  66  88 CALM      30.11R
LEBANON        MOCLDY    69  67  93 CALM      30.09R
NASHVILLE      MOCLDY    71  69  93 CALM      30.11R
WEST NASHVILLE MOCLDY    72  72 100 CALM      30.10R
PORTLAND       CLEAR     68  66  94 CALM      30.10R
SMYRNA         MOCLDY    69  68  97 CALM      30.11R
SPARTA         CLOUDY    64  64 100 CALM      30.12R VSB 0
$$
TNZ056-058-060-061-075>077-079-093>097-271300
...SOUTHERN MIDDLE TENNESSEE...

CITY           SKY/WX    TMP DP  RH WIND       PRES   REMARKS
COLUMBIA       PTCLDY    66  66 100 CALM      30.10R
FAYETTEVILLE   CLEAR     66  64  94 CALM      30.12R
LEWISBURG      MOCLDY    65  63  93 CALM      30.11R
MCMINNVILLE    PTCLDY    64  64 100 CALM      30.13R
MURFREESBORO   PTCLDY    69  67  93 CALM      30.10R
SHELBYVILLE    CLEAR     66  66 100 CALM      30.12R
TULLAHOMA      CLEAR     64  63  94 CALM      30.14R
WINCHESTER     PTCLDY    63  63 100 CALM      30.13R
$$


...KEY TO REMARKS...
VSB - VISIBILITY IN MILES
WCI - WIND CHILL INDEX
HX  - HEAT INDEX



USA.gov is the U.S. government's official web portal to all federal, state and local government web resources and services.